OneWeb SL0581

operational
NORAD ID: 56069 Int'l Des: 2023-043 Owner: ONEWEBN Country: UK Constellation: oneweb
LEOCIRCULARPOLARONEWEB_TYPE

Über OneWeb SL0581

Beschreibung wird geladen...

Live-Position

3D-Globus wird geladen...

Nächste Überflüge

Höhenverlauf

Altitude vs Time

uPlot chart will show altitude changes over time

Zweizeiliger Elementsatz

1 56069U 23043Z 26062.05851049 -.00000004 00000-0 -42972-4 0 9990
2 56069 87.9002 249.8962 0001022 85.3046 274.8202 13.16593647144992
Epoch: 3. März 2026 • Age: 8 hours

Aktueller Status

Höhe 1208.0 km
Geschwindigkeit 7.25 km/s
Subsatellitenpunkt -26.28°S, 150.97°E
Startdatum 26. März 2023
Alter 2.9 years
Typ internet

Technische Details

Klassifizierung Payload
Masse 148.00 kg
Trockenmasse 140.00 kg
Gesamtmasse 148.00 kg
Länge 1.30 m
Durchmesser 1.00 m
Spannweite 5.00 m
Form Trapezoid+2 pan
Hersteller ONEWUS
Bus-Typ ARROW
Phasenstatus In Orbit
Besitzer/Staat ONEWEBN/UK

Große Konstellationen

Loading constellations...